Belen, NM

12:52 AM MDT on July 25, 2016 (GMT -0600)
Belen

Weather History for KE80 - April, 2013

Change the Weather History Date:

Sunday, April 14, 2013

  Actual Average (KABQ) Record (KABQ)
Temperature  
Mean Temperature 66 °F 55 °F  
Max Temperature 79 °F 69 °F 86 °F (1963)
Min Temperature 54 °F 42 °F 20 °F (1933)
Degree Days  
Heating Degree Days 0 10  
Month to date heating degree days 162  
Since 1 July heating degree days 3989  
Cooling Degree Days 2 0  
Month to date cooling degree days 0  
Year to date cooling degree days 0  
Growing Degree Days 16 (Base 50)    
Moisture  
Dew Point 18 °F    
Average Humidity 17    
Maximum Humidity 26    
Minimum Humidity 9    
Precipitation  
Precipitation 0.00 in 0.03 in 0.54 in (1916)
Month to date precipitation 0.30  
Year to date precipitation 1.73  
Snow  
Snow 0.00 in - - ()
Month to date snowfall  
Since 1 July snowfall  
Snow Depth -    
Sea Level Pressure  
Sea Level Pressure 29.72 in    
Wind  
Wind Speed 17 mph (WSW)    
Max Wind Speed 32 mph    
Max Gust Speed 41 mph    
Visibility 10 miles    
Events      
T = Trace of Precipitation, MM = Missing Value Source: NWS Daily Summary

Daily Weather History Graph

Daily Weather History Graph

Search for Another Location

Airport or City:

Trip Planner

Search our weather history database for the weather conditions in past years. The results will help you decide how hot, cold, wet, or windy it might be!

Date:

Astronomy

Apr. 14, 2013 Rise Set
Actual Time 6:36 AM MDT 7:38 PM MDT
Civil Twilight 6:10 AM MDT 8:04 PM MDT
Nautical Twilight 5:40 AM MDT 8:35 PM MDT
Astronomical Twilight 5:08 AM MDT 9:07 PM MDT
Moon 9:23 AM MDT (4/14) 11:47 PM MDT (4/14)
Length of Visible Light 13h 54m
Length of Day
13h 02m
Waxing Crescent, 17% of the Moon is Illuminated
Apr 14
Waxing Crescent
Apr 18
First Quarter
Apr 25
Full
May 2
Last Quarter
May 9
New

Hourly Weather History & Observations

Time (MDT) Temp. Dew Point Humidity Pressure Visibility Wind Dir Wind Speed Gust Speed Precip Events Conditions
12:15 AM 58.1 °F 17.6 °F 21% 29.73 in 10.0 mi SW 16.1 mph - N/A   Clear
12:35 AM 58.8 °F 17.6 °F 20% 29.73 in 10.0 mi WSW 15.0 mph - N/A   Clear
12:55 AM 58.6 °F 17.6 °F 20% 29.73 in 10.0 mi WSW 16.1 mph - N/A   Clear
1:15 AM 59.0 °F 17.2 °F 20% 29.73 in 10.0 mi West 19.6 mph - N/A   Clear
1:35 AM 58.5 °F 17.6 °F 20% 29.73 in 10.0 mi WSW 19.6 mph - N/A   Clear
1:55 AM 59.4 °F 18.1 °F 20% 29.74 in 10.0 mi WSW 16.1 mph 26.5 mph N/A   Clear
2:15 AM 60.6 °F 18.0 °F 19% 29.75 in 10.0 mi SW 8.1 mph 19.6 mph N/A   Clear
2:35 AM 58.6 °F 18.5 °F 21% 29.75 in 10.0 mi South 3.5 mph - N/A   Clear
2:55 AM 58.5 °F 18.5 °F 21% 29.74 in 10.0 mi SW 8.1 mph - N/A   Clear
3:15 AM 59.4 °F 18.5 °F 20% 29.73 in 10.0 mi WSW 23.0 mph 32.2 mph N/A   Clear
3:35 AM 58.6 °F 18.5 °F 21% 29.73 in 10.0 mi WSW 20.7 mph 29.9 mph N/A   Clear
3:55 AM 59.9 °F 18.3 °F 20% 29.74 in 10.0 mi WSW 16.1 mph 33.4 mph N/A   Clear
4:15 AM 59.2 °F 18.1 °F 20% 29.75 in 10.0 mi SSW 5.8 mph - N/A   Clear
4:35 AM 56.5 °F 18.5 °F 23% 29.74 in 10.0 mi SSW 6.9 mph - N/A   Clear
4:55 AM 55.9 °F 19.2 °F 24% 29.74 in 10.0 mi West 16.1 mph 19.6 mph N/A   Clear
5:15 AM 57.2 °F 19.8 °F 23% 29.73 in 10.0 mi West 21.9 mph 31.1 mph N/A   Clear
5:35 AM 57.9 °F 20.3 °F 23% 29.72 in 10.0 mi West 25.3 mph 33.4 mph N/A   Clear
5:55 AM 57.9 °F 19.6 °F 23% 29.74 in 10.0 mi WSW 20.7 mph 34.5 mph N/A   Clear
6:15 AM 55.2 °F 19.6 °F 25% 29.75 in 10.0 mi SW 12.7 mph 20.7 mph N/A   Clear
6:35 AM 55.4 °F 19.9 °F 25% 29.76 in 10.0 mi WSW 10.4 mph 17.3 mph N/A   Clear
6:55 AM 54.5 °F 20.3 °F 26% 29.76 in 10.0 mi SSW 15.0 mph - N/A   Clear
7:15 AM 55.9 °F 20.1 °F 25% 29.77 in 10.0 mi SW 13.8 mph 18.4 mph N/A   Clear
7:35 AM 58.3 °F 19.2 °F 22% 29.77 in 10.0 mi SW 16.1 mph 20.7 mph N/A   Clear
7:55 AM 59.4 °F 19.0 °F 21% 29.77 in 10.0 mi WSW 15.0 mph 26.5 mph N/A   Clear
8:15 AM 59.9 °F 18.7 °F 20% 29.77 in 10.0 mi SW 21.9 mph - N/A   Clear
8:35 AM 59.7 °F 18.5 °F 20% 29.78 in 10.0 mi SW 18.4 mph - N/A   Clear
8:55 AM 59.9 °F 18.9 °F 20% 29.78 in 10.0 mi SW 18.4 mph - N/A   Clear
9:15 AM 61.7 °F 19.4 °F 20% 29.78 in 10.0 mi SW 16.1 mph - N/A   Clear
9:35 AM 63.1 °F 19.4 °F 19% 29.77 in 10.0 mi SW 20.7 mph - N/A   Clear
9:55 AM 64.8 °F 19.4 °F 18% 29.78 in 10.0 mi SW 15.0 mph 25.3 mph N/A   Clear
10:15 AM 65.8 °F 19.8 °F 17% 29.78 in 10.0 mi SW 13.8 mph 19.6 mph N/A   Clear
10:35 AM 66.7 °F 19.4 °F 16% 29.78 in 10.0 mi WSW 9.2 mph 26.5 mph N/A   Clear
10:55 AM 68.9 °F 18.9 °F 15% 29.77 in 10.0 mi SW 10.4 mph 18.4 mph N/A   Clear
11:15 AM 70.9 °F 18.5 °F 14% 29.77 in 10.0 mi West 20.7 mph 26.5 mph N/A   Clear
11:35 AM 72.1 °F 18.5 °F 13% 29.76 in 10.0 mi West 20.7 mph 29.9 mph N/A   Clear
11:55 AM 73.4 °F 18.5 °F 13% 29.76 in 10.0 mi West 16.1 mph 34.5 mph N/A   Clear
12:15 PM 73.8 °F 18.5 °F 12% 29.74 in 10.0 mi West 17.3 mph 34.5 mph N/A   Clear
12:35 PM 74.5 °F 18.5 °F 12% 29.73 in 10.0 mi West 21.9 mph 34.5 mph N/A   Clear
12:55 PM 75.9 °F 18.5 °F 12% 29.72 in 10.0 mi WSW 26.5 mph 36.8 mph N/A   Clear
1:15 PM 76.8 °F 18.5 °F 11% 29.71 in 10.0 mi West 32.2 mph 40.3 mph N/A   Clear
1:35 PM 77.5 °F 18.5 °F 11% 29.70 in 10.0 mi West 26.5 mph 35.7 mph N/A   Clear
1:55 PM 77.4 °F 18.0 °F 11% 29.70 in 10.0 mi West 27.6 mph 35.7 mph N/A   Clear
2:15 PM 78.4 °F 17.6 °F 10% 29.69 in 10.0 mi West 21.9 mph 32.2 mph N/A   Clear
2:35 PM 77.9 °F 17.4 °F 10% 29.69 in 10.0 mi West 25.3 mph 41.4 mph N/A   Clear
2:55 PM 78.1 °F 17.6 °F 10% 29.69 in 10.0 mi WNW 20.7 mph 32.2 mph N/A   Clear
3:15 PM 78.8 °F 17.1 °F 10% 29.68 in 10.0 mi West 31.1 mph 40.3 mph N/A   Clear
3:35 PM 79.3 °F 16.9 °F 10% 29.67 in 10.0 mi WNW 21.9 mph 33.4 mph N/A   Clear
3:55 PM 79.2 °F 17.1 °F 10% 29.67 in 10.0 mi West 18.4 mph 36.8 mph N/A   Clear
4:15 PM 79.0 °F 16.9 °F 10% 29.66 in 10.0 mi West 15.0 mph 35.7 mph N/A   Clear
4:35 PM 79.3 °F 15.4 °F 9% 29.66 in 10.0 mi West 26.5 mph 34.5 mph N/A   Clear
4:55 PM 79.0 °F 15.8 °F 9% 29.66 in 10.0 mi West 21.9 mph 32.2 mph N/A   Clear
5:15 PM 78.8 °F 15.3 °F 9% 29.66 in 10.0 mi West 25.3 mph 35.7 mph N/A   Clear
5:35 PM 78.4 °F 16.0 °F 10% 29.66 in 10.0 mi WSW 18.4 mph 34.5 mph N/A   Clear
5:55 PM 77.7 °F 15.8 °F 10% 29.66 in 10.0 mi West 17.3 mph 33.4 mph N/A   Clear
6:15 PM 77.0 °F 16.7 °F 10% 29.66 in 10.0 mi West 20.7 mph 27.6 mph N/A   Clear
6:35 PM 76.3 °F 16.5 °F 10% 29.67 in 10.0 mi West 21.9 mph 28.8 mph N/A   Clear
6:55 PM 75.4 °F 16.7 °F 11% 29.67 in 10.0 mi West 19.6 mph 23.0 mph N/A   Clear
7:15 PM 73.9 °F 16.7 °F 11% 29.68 in 10.0 mi West 18.4 mph 26.5 mph N/A   Clear
7:35 PM 72.3 °F 16.7 °F 12% 29.68 in 10.0 mi West 19.6 mph 26.5 mph N/A   Clear
7:55 PM 70.5 °F 16.3 °F 13% 29.68 in 10.0 mi West 17.3 mph - N/A   Clear
8:15 PM 69.3 °F 16.5 °F 13% 29.68 in 10.0 mi West 13.8 mph - N/A   Clear
8:35 PM 67.6 °F 16.5 °F 14% 29.69 in 10.0 mi West 10.4 mph - N/A   Clear
8:55 PM 65.5 °F 16.0 °F 15% 29.70 in 10.0 mi West 10.4 mph - N/A   Clear
9:15 PM 64.2 °F 15.8 °F 15% 29.70 in 10.0 mi West 10.4 mph - N/A   Clear
9:35 PM 63.0 °F 16.5 °F 17% 29.72 in 10.0 mi SW 12.7 mph - N/A   Clear
9:55 PM 63.9 °F 16.7 °F 16% 29.73 in 10.0 mi SW 11.5 mph - N/A   Clear
10:15 PM 64.6 °F 17.8 °F 17% 29.74 in 10.0 mi WSW 12.7 mph - N/A   Clear
10:35 PM 63.3 °F 18.7 °F 18% 29.73 in 10.0 mi WSW 12.7 mph - N/A   Clear
10:55 PM 61.5 °F 19.4 °F 20% 29.73 in 10.0 mi WSW 11.5 mph - N/A   Clear
11:15 PM 59.2 °F 19.4 °F 21% 29.74 in 10.0 mi WSW 10.4 mph - N/A   Clear
11:35 PM 57.6 °F 19.4 °F 23% 29.74 in 10.0 mi West 9.2 mph - N/A   Clear
11:55 PM 58.6 °F 19.9 °F 22% 29.74 in 10.0 mi WSW 13.8 mph - N/A   Clear